Regional Weather Roundup
Issued by NWS

Home | Current Version | Previous Version | Graphics & Text | Print | Product List | Glossary On
Versions: 1 2 3 4 5 6 7 8 9 10 11 12 13 14 15 16 17 18 19 20 21 22 23 24 25 26 27 28 29 30 31 32 33 34 35 36 37 38 39 40 41 42 43 44 45 46 47 48 49 50
000
ASUS43 KFSD 261510
RWRSD

WEATHER ROUNDUP FOR SOUTH DAKOTA
NATIONAL WEATHER SERVICE SIOUX FALLS SD
1000 AM CDT THU APR 26 2018

NOTE: "FAIR" INDICATES FEW OR NO CLOUDS BELOW 12,000 FEET WITH NO
SIGNIFICANT WEATHER AND/OR OBSTRUCTIONS TO VISIBILITY.


SDZ001>005-009-010-012>017-261600-
NORTHWEST AND NORTH CENTRAL SOUTH DAKOTA

CITY           SKY/WX    TMP DP  RH WIND       PRES   REMARKS
BUFFALO          N/A     52  31  44 NW12      30.15S
FAITH            N/A     50  34  54 NW9       30.19R
MOBRIDGE       SUNNY     53  31  42 N12       30.13R
$$

SDZ012>016-024>037-041>051-057-063-072>074-261600-
SOUTHWEST AND SOUTH CENTRAL SOUTH DAKOTA

CITY           SKY/WX    TMP DP  RH WIND       PRES   REMARKS
RAPID CTY ARPT SUNNY     51  33  50 N16       30.23R
PIERRE         SUNNY     53  30  41 N16       30.14R
CUSTER         PTSUNNY   42  25  50 VRB6G16   30.23R
ELLSWORTH AFB  SUNNY     51  33  51 N14       30.22R
PHILIP         SUNNY     53  31  42 N12       30.20R
PINE RIDGE     SUNNY     50  34  54 N15       30.22R
SPEARFISH      FAIR      48  32  53 NW12G17   30.25S
WINNER         FAIR      53  30  41 N23       30.13R
$$

SDZ004>011-016>023-039-040-261600-
NORTHEAST SOUTH DAKOTA

CITY           SKY/WX    TMP DP  RH WIND       PRES   REMARKS
ABERDEEN       SUNNY     53  30  41 N21G28    30.09R
WATERTOWN      SUNNY     50  29  44 N33G40    29.99R
BROOKINGS      SUNNY     49  35  58 N26G37    29.96R
SISSETON         N/A     51  31  46 N29G37    30.02R
$$

SDZ017-020-022-023-036>040-048>070-261600-
SOUTHEAST SOUTH DAKOTA

CITY           SKY/WX    TMP DP  RH WIND       PRES   REMARKS
SIOUX FALLS    CLOUDY    51  36  56 N18G28    29.93R
HURON          SUNNY     52  33  48 N21G31    30.06R
CHAMBERLAIN    SUNNY     54  30  40 N23G30    30.10R
MITCHELL       SUNNY     51  36  56 N28G40    30.03R
YANKTON        CLOUDY    52  39  61 NW17G25   29.95R
$$

ABBREVIATIONS USED IN REMARKS
   TC - TEMPERATURE IN CELSIUS
  WCI - WIND CHILL INDEX
   HX - HEAT INDEX
  VSB - VISIBILITY





USA.gov is the U.S. government's official web portal to all federal, state and local government web resources and services.